Location: La Pernelle
(49.6188°N, 1.2999°W)
Time: 03:36:49
(UTC+00:00)

Cosmos 1441 Rocket - Visible Passes

Search period start: 17 October 2021 00:00
Search period end: 27 October 2021 00:00
Orbit: 494 x 539 km, 81.1° (Epoch: 16 October)

Date Brightness Start Highest point End Pass type
(mag) Time Alt. Az. Time Alt. Az. Time Alt. Az.
17 Oct 5.3 05:41:52 10° SSE 05:45:16 33° E 05:48:40 10° NNE visible
18 Oct 5.5 05:27:21 10° SSE 05:30:37 28° E 05:33:52 10° NNE visible
19 Oct 5.8 05:12:53 10° SSE 05:15:58 24° E 05:19:03 10° NE visible
20 Oct 6.0 04:58:26 10° SE 05:01:19 21° E 05:04:12 10° NE visible
21 Oct 6.2 04:44:02 10° SE 04:46:40 18° E 04:49:18 10° NE visible
21 Oct 7.1 17:47:43 10° WNW 17:48:07 10° W 17:48:32 10° W visible
22 Oct 6.3 04:29:42 10° SE 04:32:02 16° E 04:34:22 10° NE visible
22 Oct 3.5 06:04:00 10° SSW 06:07:35 43° WNW 06:11:11 10° N visible
22 Oct 6.7 17:32:03 10° WNW 17:33:29 12° W 17:34:57 10° WSW visible
23 Oct 6.5 04:15:26 10° ESE 04:17:23 14° E 04:19:21 10° NE visible
23 Oct 3.3 05:49:12 10° SSW 05:52:51 51° WNW 05:56:31 10° N visible
24 Oct 6.5 04:01:18 10° ESE 04:02:45 12° E 04:04:12 10° ENE visible
24 Oct 3.1 05:34:27 10° SSW 05:38:08 60° WNW 05:41:51 10° N visible
25 Oct 6.7 03:47:39 10° E 03:48:07 10° E 03:48:35 10° ENE visible
25 Oct 3.0 05:19:42 10° SSW 05:23:25 71° WNW 05:27:09 10° N visible
26 Oct 3.0 05:04:58 10° SSW 05:08:43 84° WNW 05:12:27 10° N visible
